IRIDIUM 23 [+]

Last updated on Thu Feb 08 2018 00:19:33 GMT+0000 (Coordinated Universal Time)

1 24906U 97043D 18038.41944101 .00000147 00000-0 45284-4 0 9997 2 24906 86.4016 157.2255 0002014 94.0026 331.5325 14.34218317 71557

Satellite not in orbit

IRIDIUM 23 [+]